Zurück zum Katalog

FENGYUN 1C DEB

LostPO
NORAD 38723·DEBRIS·🇨🇳 China

Gestartet May 10, 1999 von Taiyuan Satellite Launch Center

Loading…

Nächste Überflüge (nächste 24 Stunden)

TLE

VeraltetSource: Space-Track

Epoche: Aug 25, 2022, 14:25 UTC

1 38723U 99025ETQ 22237.60079847  .00001778  00000-0  63838-3 0  9999
2 38723  99.4651  17.4308 0040806 309.4857  50.2719 14.34860358598475

Verfolge FENGYUN 1C DEB in Echtzeit mit AllMySat

Download on the App Store